Location: Głubczyce
(50.2020°N, 17.8242°E)
Time: 23:01:33
(UTC+02:00)

ISS - Visible Passes

Search period start: 20 September 2018 00:00
Search period end: 30 September 2018 00:00
Orbit: 403 x 408 km, 51.6° (Epoch: 20 September)

Date Brightness Start Highest point End Pass type
(mag) Time Alt. Az. Time Alt. Az. Time Alt. Az.
22 Sep -1.9 20:27:27 10° SSW 20:28:50 18° S 20:28:50 18° S visible
23 Sep -1.9 19:36:29 10° S 19:38:29 15° SE 19:39:36 13° ESE visible
23 Sep -1.5 21:11:15 10° WSW 21:12:17 19° SW 21:12:17 19° SW visible
24 Sep -3.4 20:19:33 10° SW 20:22:41 42° SSE 20:22:51 41° SE visible
25 Sep -2.7 19:28:03 10° SSW 19:30:55 28° SE 19:33:16 13° E visible
25 Sep -2.4 21:03:53 10° WSW 21:05:57 36° WSW 21:05:57 36° WSW visible
26 Sep -3.9 20:12:00 10° WSW 20:15:17 71° SSE 20:16:13 42° E visible
26 Sep -0.6 21:48:34 10° W 21:48:54 12° W 21:48:54 12° W visible
27 Sep -3.5 19:20:13 10° SW 19:23:24 49° SSE 19:26:24 12° E visible
27 Sep -2.8 20:56:36 10° W 20:59:04 46° WNW 20:59:04 46° WNW visible
28 Sep -3.8 20:04:37 10° W 20:07:55 81° NNW 20:09:10 35° ENE visible
28 Sep -0.7 21:41:16 10° WNW 21:41:51 14° WNW 21:41:51 14° WNW visible
29 Sep -3.8 19:12:40 10° WSW 19:15:58 80° SSE 19:19:13 10° ENE visible
29 Sep -2.9 20:49:17 10° W 20:51:53 49° WNW 20:51:53 49° WNW visible
